"read_dt","SO2 (ppb)","flags","PMT voltage (V)","lamp voltage (V)","lamp intensity (Hz)","internal temp (C)","react chamber temp (C)","sample flow (l/min)","pres (mmHg)","SO2 bkg (ppb)","SO2 coefficient"
2018-07-19 00:00:00,-2.954E-01,4C000000*,-702.3,968.235,89,26.2,44.9,0.404,729.9,2.2,1.050*
2018-07-19 00:01:00,-2.466E-01,4C000000*,-703.0,968.639,90,26.1,45.2,0.403,729.9,2.2,1.050*
2018-07-19 00:02:00,-1.925E-01,4C000000*,-702.6,969.044,89,26.2,44.8,0.404,729.9,2.2,1.050*
2018-07-19 00:03:00,-3.093E-01,4C000000*,-703.0,967.831,90,26.1,45.0,0.403,729.9,2.2,1.050*
2018-07-19 00:04:00,-2.798E-01,4C000000*,-703.0,968.235,90,26.2,45.0,0.404,729.6,2.2,1.050*
2018-07-19 00:05:00,-2.782E-01,4C000000*,-702.6,968.235,90,26.0,44.8,0.403,729.9,2.2,1.050*
2018-07-19 00:06:00,-2.347E-01,4C000000*,-702.6,969.044,91,26.2,45.0,0.403,729.9,2.2,1.050*
2018-07-19 00:07:00,-1.799E-01,4C000000*,-703.0,969.448,91,26.2,44.9,0.403,729.9,2.2,1.050*
2018-07-19 00:08:00,-2.566E-01,4C000000*,-702.6,967.831,90,26.2,44.8,0.403,729.9,2.2,1.050*
2018-07-19 00:09:00,-2.191E-01,4C000000*,-702.6,968.235,91,26.2,45.1,0.403,729.9,2.2,1.050*
2018-07-19 00:10:00,-2.554E-01,4C000000*,-703.0,968.235,90,26.2,44.8,0.403,729.9,2.2,1.050*
2018-07-19 00:11:00,-2.394E-01,4C000000*,-702.6,968.235,90,26.2,44.9,0.404,729.9,2.2,1.050*
2018-07-19 00:12:00,-2.167E-01,4C000000*,-702.6,969.044,90,26.2,45.1,0.403,729.9,2.2,1.050*
2018-07-19 00:13:00,-3.011E-01,4C000000*,-702.6,968.639,90,26.2,44.7,0.403,729.9,2.2,1.050*
2018-07-19 00:14:00,-2.794E-01,4C000000*,-702.6,969.044,91,26.2,44.9,0.404,729.9,2.2,1.050*
2018-07-19 00:15:00,-2.092E-01,4C000000*,-702.3,969.852,89,26.2,45.0,0.403,729.6,2.2,1.050*
2018-07-19 00:16:00,-2.224E-01,4C000000*,-702.6,967.427,89,26.1,44.8,0.403,729.6,2.2,1.050*
2018-07-19 00:17:00,-1.944E-01,4C000000*,-703.0,969.448,90,26.1,45.0,0.404,729.6,2.2,1.050*
2018-07-19 00:18:00,-3.512E-01,4C000000*,-702.6,968.235,89,26.0,45.0,0.403,729.6,2.2,1.050*
2018-07-19 00:19:00,-2.443E-01,4C000000*,-703.0,968.235,89,26.0,44.9,0.403,729.6,2.2,1.050*
2018-07-19 00:20:00,-2.031E-01,4C000000*,-703.0,969.044,89,25.9,45.0,0.403,729.6,2.2,1.050*
2018-07-19 00:21:00,-1.963E-01,4C000000*,-703.0,968.235,89,25.9,44.8,0.403,729.3,2.2,1.050*
2018-07-19 00:22:00,-2.466E-01,4C000000*,-702.6,969.448,90,25.9,44.9,0.403,729.6,2.2,1.050*
2018-07-19 00:23:00,-3.855E-01,4C000000*,-703.0,968.639,90,25.9,45.2,0.404,729.6,2.2,1.050*
2018-07-19 00:24:00,-2.752E-01,4C000000*,-703.0,969.852,90,25.9,44.8,0.403,729.6,2.2,1.050*
2018-07-19 00:25:00,-2.387E-01,4C000000*,-703.0,967.831,90,25.9,44.9,0.404,729.6,2.2,1.050*
2018-07-19 00:26:00,-2.144E-01,4C000000*,-702.6,969.044,90,26.0,45.0,0.403,729.3,2.2,1.050*
2018-07-19 00:27:00,-1.972E-01,4C000000*,-703.0,967.831,91,26.0,44.8,0.403,729.6,2.2,1.050*
2018-07-19 00:28:00,-2.857E-01,4C000000*,-703.0,967.831,90,25.9,45.0,0.403,729.6,2.2,1.050*
2018-07-19 00:29:00,-2.782E-01,4C000000*,-702.3,967.831,91,25.9,44.9,0.404,729.6,2.2,1.050*
2018-07-19 00:30:00,-1.257E-01,4C000000*,-702.3,969.044,88,25.9,45.0,0.403,729.6,2.2,1.050*
2018-07-19 00:31:00,-2.347E-01,4C000000*,-702.6,969.448,89,25.7,45.0,0.403,729.3,2.2,1.050*
2018-07-19 00:32:00,-2.758E-01,4C000000*,-703.0,968.639,91,25.7,44.8,0.403,729.6,2.2,1.050*
2018-07-19 00:33:00,-2.499E-01,4C000000*,-703.0,967.831,90,25.8,45.1,0.403,729.6,2.2,1.050*
2018-07-19 00:34:00,-2.892E-01,4C000000*,-703.0,969.852,90,25.7,44.8,0.404,729.6,2.2,1.050*
2018-07-19 00:35:00,-2.563E-01,4C000000*,-703.0,968.235,90,25.8,44.9,0.403,729.6,2.2,1.050*
2018-07-19 00:36:00,-2.579E-01,4C000000*,-703.0,968.639,91,25.7,45.1,0.403,729.6,2.2,1.050*
2018-07-19 00:37:00,-3.270E-01,4C000000*,-703.0,969.044,90,25.7,44.8,0.403,729.6,2.2,1.050*
2018-07-19 00:38:00,-2.646E-01,4C000000*,-702.6,969.044,90,25.8,45.0,0.404,729.6,2.2,1.050*
2018-07-19 00:39:00,-2.683E-01,4C000000*,-702.6,968.639,89,25.7,45.0,0.403,729.6,2.2,1.050*
2018-07-19 00:40:00,-2.550E-01,4C000000*,-703.0,968.235,90,25.7,44.8,0.403,729.6,2.2,1.050*
2018-07-19 00:41:00,-2.402E-01,4C000000*,-703.0,968.235,90,25.7,45.1,0.403,729.6,2.2,1.050*
2018-07-19 00:42:00,-2.183E-01,4C000000*,-702.6,968.639,89,25.7,44.9,0.404,729.6,2.2,1.050*
2018-07-19 00:43:00,-3.017E-01,4C000000*,-702.6,968.235,89,25.7,44.8,0.403,729.6,2.2,1.050*
2018-07-19 00:44:00,-1.451E-01,4C000000*,-703.0,968.639,90,25.8,45.1,0.403,729.6,2.2,1.050*
2018-07-19 00:45:00,-3.198E-01,4C000000*,-702.6,969.044,91,25.8,44.8,0.403,729.6,2.2,1.050*
2018-07-19 00:46:00,-2.061E-01,4C000000*,-703.0,969.044,91,25.7,44.9,0.403,729.6,2.2,1.050*
2018-07-19 00:47:00,-2.753E-01,4C000000*,-703.4,967.831,91,25.7,45.1,0.403,729.6,2.2,1.050*
2018-07-19 00:48:00,-2.306E-01,4C000000*,-702.6,968.235,90,25.8,44.8,0.403,729.6,2.2,1.050*
2018-07-19 00:49:00,-2.084E-01,4C000000*,-703.0,968.235,92,25.8,45.0,0.404,729.6,2.2,1.050*
2018-07-19 00:50:00,-2.862E-01,4C000000*,-703.0,969.448,90,25.8,45.1,0.403,729.6,2.2,1.050*
2018-07-19 00:51:00,-2.426E-01,4C000000*,-703.0,968.639,90,25.9,44.8,0.403,729.9,2.2,1.050*
2018-07-19 00:52:00,-2.670E-01,4C000000*,-703.0,968.639,90,25.8,45.1,0.403,729.9,2.2,1.050*
2018-07-19 00:53:00,-2.336E-01,4C000000*,-702.6,968.235,89,25.9,44.9,0.403,729.6,2.2,1.050*
2018-07-19 00:54:00,-3.109E-01,4C000000*,-703.0,966.618,89,25.8,44.8,0.403,729.9,2.2,1.050*
2018-07-19 00:55:00,-2.022E-01,4C000000*,-702.6,968.235,91,25.9,45.1,0.403,729.6,2.2,1.050*
2018-07-19 00:56:00,-2.713E-01,4C000000*,-702.6,967.427,91,26.0,44.8,0.403,729.9,2.2,1.050*
2018-07-19 00:57:00,-1.920E-01,4C000000*,-703.0,968.235,89,25.9,44.9,0.403,729.9,2.2,1.050*
2018-07-19 00:58:00,-3.660E-01,4C000000*,-702.6,967.831,91,25.9,45.1,0.403,729.9,2.2,1.050*
2018-07-19 00:59:00,-3.187E-01,4C000000*,-703.0,969.044,90,26.0,44.8,0.403,729.9,2.2,1.050*
2018-07-19 01:00:00,-3.058E-01,4C000000*,-702.6,968.639,89,25.9,45.0,0.403,729.9,2.2,1.050*
2018-07-19 01:01:00,-2.725E-01,4C000000*,-702.6,968.235,90,25.9,45.0,0.403,729.9,2.2,1.050*
2018-07-19 01:02:00,-2.668E-01,4C000000*,-702.6,967.831,91,25.9,44.8,0.403,729.9,2.2,1.050*
2018-07-19 01:03:00,-2.473E-01,4C000000*,-703.0,967.022,91,25.9,45.0,0.404,729.9,2.2,1.050*
2018-07-19 01:04:00,-3.244E-01,4C000000*,-703.0,968.639,90,26.0,44.9,0.403,729.9,2.2,1.050*
2018-07-19 01:05:00,-2.401E-01,4C000000*,-703.0,967.831,91,26.0,44.9,0.404,729.9,2.2,1.050*
2018-07-19 01:06:00,-3.052E-01,4C000000*,-702.6,968.235,91,26.0,45.1,0.404,729.9,2.2,1.050*
2018-07-19 01:07:00,-1.630E-01,4C000000*,-703.0,968.235,88,26.0,44.8,0.404,729.9,2.2,1.050*
2018-07-19 01:08:00,-3.556E-01,4C000000*,-702.6,968.235,90,26.0,44.8,0.403,729.9,2.2,1.050*
2018-07-19 01:09:00,-2.849E-01,4C000000*,-702.6,970.256,89,26.1,45.1,0.403,729.9,2.2,1.050*
2018-07-19 01:10:00,-1.864E-01,4C000000*,-703.0,969.448,88,26.0,44.8,0.404,729.9,2.2,1.050*
2018-07-19 01:11:00,-1.990E-01,4C000000*,-703.0,969.044,90,26.0,45.0,0.404,730.2,2.2,1.050*
2018-07-19 01:12:00,-2.441E-01,4C000000*,-702.6,967.831,89,26.0,45.1,0.403,729.9,2.2,1.050*
2018-07-19 01:13:00,-2.456E-01,4C000000*,-703.0,969.448,90,26.0,44.8,0.403,730.2,2.2,1.050*
2018-07-19 01:14:00,-2.641E-01,4C000000*,-703.0,967.831,90,26.0,45.1,0.403,730.2,2.2,1.050*
2018-07-19 01:15:00,-2.867E-01,4C000000*,-703.0,969.448,90,26.0,44.9,0.404,730.2,2.2,1.050*
2018-07-19 01:16:00,-3.081E-01,4C000000*,-703.4,968.639,89,26.1,44.8,0.404,730.2,2.2,1.050*
2018-07-19 01:17:00,-3.215E-01,4C000000*,-702.6,969.044,90,26.2,45.1,0.404,729.9,2.2,1.050*
2018-07-19 01:18:00,-2.463E-01,4C000000*,-703.0,969.044,89,26.1,44.8,0.404,730.2,2.2,1.050*
2018-07-19 01:19:00,-3.296E-01,4C000000*,-702.6,969.044,90,26.2,44.9,0.404,730.2,2.2,1.050*
2018-07-19 01:20:00,-3.229E-01,4C000000*,-703.0,967.831,88,26.1,45.2,0.404,729.9,2.2,1.050*
2018-07-19 01:21:00,-3.031E-01,4C000000*,-702.6,968.235,91,26.1,44.8,0.404,730.2,2.2,1.050*
2018-07-19 01:22:00,-3.266E-01,4C000000*,-702.3,969.852,90,26.2,45.0,0.403,730.2,2.2,1.050*
2018-07-19 01:23:00,-2.928E-01,4C000000*,-703.4,969.448,89,26.1,45.0,0.403,729.9,2.2,1.050*
2018-07-19 01:24:00,-2.753E-01,4C000000*,-702.6,969.044,90,26.1,44.7,0.404,729.9,2.2,1.050*
2018-07-19 01:25:00,-2.317E-01,4C000000*,-702.6,968.235,90,26.2,45.0,0.403,729.9,2.2,1.050*
2018-07-19 01:26:00,-2.845E-01,4C000000*,-702.6,967.831,91,26.2,44.9,0.403,729.9,2.2,1.050*
2018-07-19 01:27:00,-2.695E-01,4C000000*,-703.0,968.639,90,26.2,44.8,0.404,729.9,2.2,1.050*
2018-07-19 01:28:00,-2.185E-01,4C000000*,-702.6,967.427,90,26.2,45.0,0.404,729.9,2.2,1.050*
2018-07-19 01:29:00,-2.228E-01,4C000000*,-702.6,967.831,90,26.2,44.9,0.404,729.9,2.2,1.050*
2018-07-19 01:30:00,-2.642E-01,4C000000*,-702.6,968.639,89,26.2,44.9,0.403,730.2,2.2,1.050*
2018-07-19 01:31:00,-3.035E-01,4C000000*,-702.6,968.235,90,26.2,45.2,0.403,729.9,2.2,1.050*
2018-07-19 01:32:00,-2.371E-01,4C000000*,-702.6,968.639,90,26.1,44.8,0.403,729.9,2.2,1.050*
2018-07-19 01:33:00,-3.024E-01,4C000000*,-703.0,967.427,91,26.2,45.0,0.404,729.9,2.2,1.050*
2018-07-19 01:34:00,-2.994E-01,4C000000*,-703.0,968.235,90,26.2,45.0,0.403,729.9,2.2,1.050*
2018-07-19 01:35:00,-1.747E-01,4C000000*,-702.6,968.639,89,26.2,44.8,0.404,730.2,2.2,1.050*
2018-07-19 01:36:00,-3.239E-01,4C000000*,-702.6,968.639,89,26.2,45.0,0.404,730.2,2.2,1.050*
2018-07-19 01:37:00,-2.297E-01,4C000000*,-702.6,969.044,90,26.2,45.0,0.403,729.9,2.2,1.050*
2018-07-19 01:38:00,-2.619E-01,4C000000*,-702.6,969.044,90,26.2,44.8,0.404,730.2,2.2,1.050*
2018-07-19 01:39:00,-2.302E-01,4C000000*,-702.6,968.235,89,26.2,45.0,0.404,730.2,2.2,1.050*
2018-07-19 01:40:00,-2.398E-01,4C000000*,-702.3,970.256,90,26.2,44.8,0.404,730.2,2.2,1.050*
2018-07-19 01:41:00,-2.891E-01,4C000000*,-702.6,967.831,90,26.2,44.9,0.404,730.2,2.2,1.050*
2018-07-19 01:42:00,-3.542E-01,4C000000*,-702.6,968.639,90,26.2,45.2,0.403,730.2,2.2,1.050*
2018-07-19 01:43:00,-1.959E-01,4C000000*,-702.6,969.852,90,26.2,44.8,0.403,730.2,2.2,1.050*
2018-07-19 01:44:00,-1.628E-01,4C000000*,-703.0,969.044,89,26.3,45.0,0.403,730.5,2.2,1.050*
2018-07-19 01:45:00,-2.805E-01,4C000000*,-703.0,969.044,90,26.3,45.0,0.404,730.5,2.2,1.050*
2018-07-19 01:46:00,-2.972E-01,4C000000*,-703.0,967.427,90,26.3,44.8,0.404,730.5,2.2,1.050*
2018-07-19 01:47:00,-3.005E-01,4C000000*,-702.6,968.235,88,26.3,45.0,0.404,730.5,2.2,1.050*
2018-07-19 01:48:00,-1.740E-01,4C000000*,-702.6,970.256,91,26.2,45.1,0.404,730.5,2.2,1.050*
2018-07-19 01:49:00,-2.978E-01,4C000000*,-702.6,969.852,88,26.2,44.9,0.404,730.5,2.2,1.050*
2018-07-19 01:50:00,-2.433E-01,4C000000*,-703.0,968.235,90,26.3,45.1,0.404,730.5,2.2,1.050*
2018-07-19 01:51:00,-3.308E-01,4C000000*,-703.0,970.256,90,26.3,44.8,0.404,730.5,2.2,1.050*
2018-07-19 01:52:00,-2.490E-01,4C000000*,-703.0,967.831,89,26.4,45.1,0.404,730.5,2.2,1.050*
2018-07-19 01:53:00,-2.916E-01,4C000000*,-703.0,969.448,89,26.2,44.9,0.404,730.2,2.2,1.050*
2018-07-19 01:54:00,-3.024E-01,4C000000*,-702.6,968.639,89,26.3,44.8,0.404,730.5,2.2,1.050*
2018-07-19 01:55:00,-2.565E-01,4C000000*,-703.0,970.256,91,26.3,45.1,0.404,730.5,2.2,1.050*
2018-07-19 01:56:00,-1.658E-01,4C000000*,-703.0,968.639,89,26.3,44.8,0.404,730.5,2.2,1.050*
2018-07-19 01:57:00,-2.511E-01,4C000000*,-703.0,968.235,90,26.3,44.8,0.404,730.5,2.2,1.050*
2018-07-19 01:58:00,-2.633E-01,4C000000*,-702.6,968.639,89,26.3,45.1,0.404,730.5,2.2,1.050*
2018-07-19 01:59:00,-2.347E-01,4C000000*,-703.0,968.639,90,26.3,44.8,0.404,730.5,2.2,1.050*
2018-07-19 02:00:00,-2.902E-01,4C000000*,-703.0,968.639,88,26.3,45.0,0.404,730.5,2.2,1.050*
2018-07-19 02:01:00,-3.030E-01,4C000000*,-702.6,969.852,90,26.3,45.0,0.404,730.5,2.2,1.050*
2018-07-19 02:02:00,-3.151E-01,4C000000*,-702.6,969.044,90,26.3,44.8,0.404,730.5,2.2,1.050*
2018-07-19 02:03:00,-2.651E-01,4C000000*,-703.0,968.235,90,26.3,45.0,0.404,730.5,2.2,1.050*
2018-07-19 02:04:00,-2.603E-01,4C000000*,-702.6,967.831,89,26.4,45.1,0.404,730.5,2.2,1.050*
2018-07-19 02:05:00,-3.276E-01,4C000000*,-703.0,967.427,91,26.4,44.8,0.404,730.5,2.2,1.050*
2018-07-19 02:06:00,-3.025E-01,4C000000*,-703.0,968.235,90,26.4,45.1,0.404,730.8,2.2,1.050*
2018-07-19 02:07:00,-1.886E-01,4C000000*,-702.6,968.235,91,26.4,44.9,0.404,730.5,2.2,1.050*
2018-07-19 02:08:00,-2.782E-01,4C000000*,-703.0,968.639,89,26.4,44.9,0.404,730.5,2.2,1.050*
2018-07-19 02:09:00,-2.661E-01,4C000000*,-703.0,967.427,89,26.4,45.2,0.404,730.8,2.2,1.050*
2018-07-19 02:10:00,-2.406E-01,4C000000*,-702.6,968.235,90,26.3,44.8,0.404,730.5,2.2,1.050*
2018-07-19 02:11:00,-2.418E-01,4C000000*,-703.0,969.448,90,26.4,44.9,0.404,730.5,2.2,1.050*
2018-07-19 02:12:00,-2.854E-01,4C000000*,-703.0,969.448,90,26.4,45.1,0.404,730.5,2.2,1.050*
2018-07-19 02:13:00,-2.736E-01,4C000000*,-702.6,968.235,90,26.4,44.8,0.404,730.8,2.2,1.050*
2018-07-19 02:14:00,-3.061E-01,4C000000*,-702.6,969.044,90,26.4,45.0,0.404,730.8,2.2,1.050*
2018-07-19 02:15:00,-1.878E-01,4C000000*,-703.0,968.235,89,26.3,45.1,0.404,730.5,2.2,1.050*
2018-07-19 02:16:00,-2.475E-01,4C000000*,-702.6,969.448,89,26.4,44.8,0.404,730.5,2.2,1.050*
2018-07-19 02:17:00,-1.757E-01,4C000000*,-702.6,967.427,90,26.3,45.1,0.404,730.8,2.2,1.050*
2018-07-19 02:18:00,-3.060E-01,4C000000*,-703.0,968.235,89,26.4,45.0,0.404,730.5,2.2,1.050*
2018-07-19 02:19:00,-2.235E-01,4C000000*,-702.6,968.639,90,26.4,44.9,0.404,730.5,2.2,1.050*
2018-07-19 02:20:00,-2.341E-01,4C000000*,-703.4,968.235,89,26.4,45.1,0.404,730.5,2.2,1.050*
2018-07-19 02:21:00,-3.282E-01,4C000000*,-703.0,969.044,90,26.5,44.7,0.404,730.5,2.2,1.050*
2018-07-19 02:22:00,-2.361E-01,4C000000*,-703.0,967.427,90,26.5,44.9,0.404,730.8,2.2,1.050*
2018-07-19 02:23:00,-3.441E-01,4C000000*,-702.6,967.831,90,26.5,45.2,0.404,730.5,2.2,1.050*
2018-07-19 02:24:00,-3.186E-01,4C000000*,-703.0,967.831,91,26.4,44.8,0.404,730.5,2.2,1.050*
2018-07-19 02:25:00,-2.448E-01,4C000000*,-703.0,968.235,91,26.4,45.1,0.404,730.5,2.2,1.050*
2018-07-19 02:26:00,-2.588E-01,4C000000*,-702.6,967.831,90,26.5,45.0,0.404,730.8,2.2,1.050*
2018-07-19 02:27:00,-2.970E-01,4C000000*,-703.0,969.044,90,26.5,44.8,0.404,730.8,2.2,1.050*
2018-07-19 02:28:00,-2.764E-01,4C000000*,-702.6,968.235,90,26.5,45.0,0.404,730.5,2.2,1.050*
2018-07-19 02:29:00,-2.413E-01,4C000000*,-702.6,967.831,91,26.4,45.0,0.404,730.5,2.2,1.050*
2018-07-19 02:30:00,-1.765E-01,4C000000*,-703.0,968.235,90,26.4,44.9,0.404,730.5,2.2,1.050*
2018-07-19 02:31:00,-2.288E-01,4C000000*,-702.6,968.235,91,26.4,45.1,0.404,730.5,2.2,1.050*
2018-07-19 02:32:00,-2.107E-01,4C000000*,-702.6,967.831,90,26.4,44.8,0.404,730.5,2.2,1.050*
2018-07-19 02:33:00,-2.910E-01,4C000000*,-703.0,968.235,90,26.5,44.9,0.404,730.5,2.2,1.050*
2018-07-19 02:34:00,-2.426E-01,4C000000*,-702.6,968.235,90,26.5,45.2,0.404,730.5,2.2,1.050*
2018-07-19 02:35:00,-3.136E-01,4C000000*,-703.0,967.831,89,26.5,44.8,0.404,730.5,2.2,1.050*
2018-07-19 02:36:00,-2.727E-01,4C000000*,-702.6,968.639,90,26.4,45.0,0.404,730.8,2.2,1.050*
2018-07-19 02:37:00,-3.027E-01,4C000000*,-702.6,968.639,89,26.5,45.0,0.404,730.5,2.2,1.050*
2018-07-19 02:38:00,-2.870E-01,4C000000*,-703.0,967.831,90,26.5,44.7,0.404,730.8,2.2,1.050*
2018-07-19 02:39:00,-3.643E-01,4C000000*,-702.6,968.235,90,26.5,45.0,0.404,730.8,2.2,1.050*
2018-07-19 02:40:00,-2.468E-01,4C000000*,-703.0,968.235,90,26.4,44.9,0.404,730.5,2.2,1.050*
2018-07-19 02:41:00,-3.151E-01,4C000000*,-703.0,967.831,89,26.5,44.9,0.404,730.5,2.2,1.050*
2018-07-19 02:42:00,-2.696E-01,4C000000*,-702.6,967.022,90,26.5,45.1,0.404,730.5,2.2,1.050*
2018-07-19 02:43:00,-2.700E-01,4C000000*,-702.6,969.044,91,26.5,44.8,0.404,730.5,2.2,1.050*
2018-07-19 02:44:00,-1.990E-01,4C000000*,-702.6,967.427,90,26.5,44.9,0.404,730.5,2.2,1.050*
2018-07-19 02:45:00,-3.230E-01,4C000000*,-702.6,968.639,91,26.5,45.1,0.404,730.5,2.2,1.050*
2018-07-19 02:46:00,-2.726E-01,4C000000*,-703.0,967.831,89,26.5,44.8,0.404,730.8,2.2,1.050*
2018-07-19 02:47:00,-2.553E-01,4C000000*,-703.0,967.831,89,26.5,45.0,0.404,730.8,2.2,1.050*
2018-07-19 02:48:00,-2.469E-01,4C000000*,-702.6,968.235,90,26.5,45.0,0.404,730.5,2.2,1.050*
2018-07-19 02:49:00,-2.588E-01,4C000000*,-703.0,967.427,90,26.5,44.8,0.404,730.8,2.2,1.050*
2018-07-19 02:50:00,-1.897E-01,4C000000*,-703.0,968.235,90,26.5,45.1,0.404,730.8,2.2,1.050*
2018-07-19 02:51:00,-1.732E-01,4C000000*,-703.0,967.831,90,26.5,45.0,0.404,730.8,2.2,1.050*
2018-07-19 02:52:00,-2.397E-01,4C000000*,-702.6,967.427,90,26.5,44.8,0.404,730.8,2.2,1.050*
2018-07-19 02:53:00,-2.930E-01,4C000000*,-703.0,968.235,91,26.5,45.1,0.404,730.8,2.2,1.050*
2018-07-19 02:54:00,-2.306E-01,4C000000*,-702.6,967.831,90,26.5,44.8,0.404,730.8,2.2,1.050*
2018-07-19 02:55:00,-2.253E-01,4C000000*,-703.0,968.235,90,26.5,45.2,0.404,730.8,2.2,1.050*
2018-07-19 02:56:00,-2.641E-01,4C000000*,-702.6,967.831,90,26.5,44.8,0.404,730.8,2.2,1.050*
2018-07-19 02:57:00,-3.495E-01,4C000000*,-703.0,967.427,90,26.5,45.0,0.404,730.8,2.2,1.050*
2018-07-19 02:58:00,-3.121E-01,4C000000*,-703.0,968.235,91,26.5,44.9,0.404,730.8,2.2,1.050*
2018-07-19 02:59:00,-2.707E-01,4C000000*,-703.0,967.831,90,26.5,44.9,0.404,730.8,2.2,1.050*
2018-07-19 03:00:00,-2.783E-01,4C000000*,-703.0,967.831,89,26.5,45.1,0.404,730.8,2.2,1.050*
2018-07-19 03:01:00,-2.944E-01,4C000000*,-703.0,968.639,90,26.5,44.8,0.404,730.8,2.2,1.050*
2018-07-19 03:02:00,-1.995E-01,4C000000*,-702.6,968.235,90,26.5,44.9,0.404,730.8,2.2,1.050*
2018-07-19 03:03:00,-2.672E-01,4C000000*,-702.6,968.639,90,26.6,45.1,0.404,730.8,2.2,1.050*
2018-07-19 03:04:00,-2.289E-01,4C000000*,-703.0,968.639,89,26.5,44.8,0.404,730.8,2.2,1.050*
2018-07-19 03:05:00,-3.194E-01,4C000000*,-702.6,968.639,91,26.6,45.0,0.404,730.8,2.2,1.050*
2018-07-19 03:06:00,-3.618E-01,4C000000*,-702.6,969.044,90,26.6,45.1,0.404,730.8,2.2,1.050*
2018-07-19 03:07:00,-2.845E-01,4C000000*,-702.6,968.639,89,26.6,44.8,0.404,730.8,2.2,1.050*
2018-07-19 03:08:00,-3.004E-01,4C000000*,-703.0,967.831,90,26.6,45.1,0.404,730.8,2.2,1.050*
2018-07-19 03:09:00,-3.093E-01,4C000000*,-702.3,968.639,90,26.6,44.8,0.404,730.8,2.2,1.050*
2018-07-19 03:10:00,-2.261E-01,4C000000*,-703.0,968.639,88,26.6,45.1,0.404,730.8,2.2,1.050*
2018-07-19 03:11:00,-2.126E-01,4C000000*,-702.6,968.235,91,26.6,44.9,0.404,730.8,2.2,1.050*
2018-07-19 03:12:00,-2.674E-01,4C000000*,-702.6,969.044,91,26.6,44.9,0.404,731.1,2.2,1.050*
2018-07-19 03:13:00,-2.513E-01,4C000000*,-703.0,968.235,89,26.6,45.2,0.404,730.8,2.2,1.050*
2018-07-19 03:14:00,-3.578E-01,4C000000*,-703.0,968.235,90,26.6,44.7,0.404,730.8,2.2,1.050*
2018-07-19 03:15:00,-2.531E-01,4C000000*,-703.0,967.831,90,26.6,44.9,0.404,730.8,2.2,1.050*
2018-07-19 03:16:00,-2.291E-01,4C000000*,-703.0,968.639,89,26.6,45.1,0.404,730.8,2.2,1.050*
2018-07-19 03:17:00,-2.288E-01,4C000000*,-703.0,968.235,90,26.7,44.8,0.404,730.8,2.2,1.050*
2018-07-19 03:18:00,-2.535E-01,4C000000*,-702.6,969.044,90,26.7,45.1,0.404,731.1,2.2,1.050*
2018-07-19 03:19:00,-2.094E-01,4C000000*,-702.6,968.639,90,26.6,44.8,0.404,730.8,2.2,1.050*
2018-07-19 03:20:00,-2.881E-01,4C000000*,-703.0,968.235,91,26.7,45.0,0.404,730.8,2.2,1.050*
2018-07-19 03:21:00,-2.910E-01,4C000000*,-703.0,967.427,90,26.6,44.9,0.404,730.8,2.2,1.050*
2018-07-19 03:22:00,-2.721E-01,4C000000*,-702.6,968.235,91,26.8,44.9,0.404,730.8,2.2,1.050*
2018-07-19 03:23:00,-3.371E-01,4C000000*,-703.0,969.448,89,26.7,45.1,0.404,731.1,2.2,1.050*
2018-07-19 03:24:00,-2.292E-01,4C000000*,-703.0,967.831,90,26.7,44.8,0.404,731.1,2.2,1.050*
2018-07-19 03:25:00,-3.533E-01,4C000000*,-702.6,967.427,90,26.7,45.2,0.404,730.8,2.2,1.050*
2018-07-19 03:26:00,-2.967E-01,4C000000*,-702.6,969.448,90,26.7,44.9,0.404,731.1,2.2,1.050*
2018-07-19 03:27:00,-3.516E-01,4C000000*,-702.6,968.235,91,26.7,45.0,0.404,731.1,2.2,1.050*
2018-07-19 03:28:00,-2.324E-01,4C000000*,-702.6,967.427,90,26.7,44.9,0.404,731.1,2.2,1.050*
2018-07-19 03:29:00,-2.506E-01,4C000000*,-703.0,967.427,89,26.7,44.9,0.404,731.1,2.2,1.050*
2018-07-19 03:30:00,-1.917E-01,4C000000*,-702.6,968.639,90,26.8,45.2,0.404,731.1,2.2,1.050*
2018-07-19 03:31:00,-3.022E-01,4C000000*,-702.6,968.639,89,26.7,44.8,0.404,730.8,2.2,1.050*
2018-07-19 03:32:00,-2.444E-01,4C000000*,-702.6,968.235,90,26.7,44.9,0.404,731.1,2.2,1.050*
2018-07-19 03:33:00,-2.897E-01,4C000000*,-702.6,967.427,91,26.7,45.0,0.404,731.1,2.2,1.050*
2018-07-19 03:34:00,-2.424E-01,4C000000*,-702.6,967.831,89,26.7,44.8,0.404,731.1,2.2,1.050*
2018-07-19 03:35:00,-2.642E-01,4C000000*,-703.0,967.831,89,26.8,45.0,0.404,731.1,2.2,1.050*
2018-07-19 03:36:00,-3.420E-01,4C000000*,-703.0,968.639,90,26.7,45.0,0.404,731.1,2.2,1.050*
2018-07-19 03:37:00,-2.483E-01,4C000000*,-702.6,967.831,89,26.8,44.8,0.404,731.1,2.2,1.050*
2018-07-19 03:38:00,-3.044E-01,4C000000*,-702.6,969.044,90,26.8,45.1,0.404,731.1,2.2,1.050*
2018-07-19 03:39:00,-2.932E-01,4C000000*,-703.4,968.639,90,26.7,44.8,0.404,730.8,2.2,1.050*
2018-07-19 03:40:00,-2.496E-01,4C000000*,-703.0,968.639,88,26.7,44.9,0.404,731.1,2.2,1.050*
2018-07-19 03:41:00,-1.559E-01,4C000000*,-702.6,967.831,90,26.9,45.2,0.404,730.8,2.2,1.050*
2018-07-19 03:42:00,-2.563E-01,4C000000*,-702.6,968.235,89,26.8,44.8,0.405,731.1,2.2,1.050*
2018-07-19 03:43:00,-2.467E-01,4C000000*,-703.0,969.448,90,26.8,45.0,0.404,731.1,2.2,1.050*
2018-07-19 03:44:00,-2.552E-01,4C000000*,-702.6,968.235,90,26.8,45.0,0.404,731.1,2.2,1.050*
2018-07-19 03:45:00,-3.270E-01,4C000000*,-702.6,967.831,89,26.7,44.8,0.404,731.1,2.2,1.050*
2018-07-19 03:46:00,-3.381E-01,4C000000*,-703.0,967.427,91,26.8,45.0,0.404,731.1,2.2,1.050*
2018-07-19 03:47:00,-1.987E-01,4C000000*,-702.6,968.639,89,26.8,44.9,0.404,731.1,2.2,1.050*
2018-07-19 03:48:00,-2.183E-01,4C000000*,-702.6,967.831,89,26.8,44.8,0.405,731.1,2.2,1.050*
2018-07-19 03:49:00,-2.673E-01,4C000000*,-702.6,967.427,90,26.8,45.0,0.404,731.1,2.2,1.050*
2018-07-19 03:50:00,-2.625E-01,4C000000*,-703.0,968.639,89,26.8,44.8,0.404,731.1,2.2,1.050*
2018-07-19 03:51:00,-2.132E-01,4C000000*,-702.3,967.427,90,26.8,44.9,0.404,731.1,2.2,1.050*
2018-07-19 03:52:00,-2.676E-01,4C000000*,-703.4,968.235,90,26.8,45.2,0.404,731.1,2.2,1.050*
2018-07-19 03:53:00,-3.068E-01,4C000000*,-703.4,968.639,88,26.8,44.8,0.404,731.1,2.2,1.050*
2018-07-19 03:54:00,-2.845E-01,4C000000*,-702.6,967.022,91,26.8,45.0,0.404,731.1,2.2,1.050*
2018-07-19 03:55:00,-2.456E-01,4C000000*,-702.6,969.044,90,26.8,45.0,0.404,731.1,2.2,1.050*
2018-07-19 03:56:00,-2.175E-01,4C000000*,-702.6,968.639,90,26.8,44.8,0.404,731.1,2.2,1.050*
2018-07-19 03:57:00,-2.181E-01,4C000000*,-702.3,967.831,90,26.8,45.0,0.404,731.4,2.2,1.050*
2018-07-19 03:58:00,-2.611E-01,4C000000*,-702.6,967.831,89,26.8,45.0,0.405,731.1,2.2,1.050*
2018-07-19 03:59:00,-2.389E-01,4C000000*,-703.0,967.427,91,26.8,44.8,0.404,731.1,2.2,1.050*
2018-07-19 04:00:00,-3.475E-01,4C000000*,-702.3,967.022,89,26.9,45.1,0.404,731.4,2.2,1.050*
2018-07-19 04:01:00,-2.200E-01,4C000000*,-703.0,967.831,90,26.9,44.8,0.404,731.1,2.2,1.050*
2018-07-19 04:02:00,-2.430E-01,4C000000*,-702.6,968.639,90,26.9,44.9,0.405,731.4,2.2,1.050*
2018-07-19 04:03:00,-2.863E-01,4C000000*,-702.6,968.235,89,26.9,45.1,0.404,731.4,2.2,1.050*
2018-07-19 04:04:00,-3.111E-01,4C000000*,-703.4,968.235,89,26.9,44.8,0.404,731.4,2.2,1.050*
2018-07-19 04:05:00,-2.908E-01,4C000000*,-703.0,968.235,90,26.9,44.9,0.405,731.4,2.2,1.050*
2018-07-19 04:06:00,-2.440E-01,4C000000*,-702.6,968.235,91,26.9,45.0,0.404,731.4,2.2,1.050*
2018-07-19 04:07:00,-1.987E-01,4C000000*,-702.6,967.427,90,26.8,44.8,0.405,731.4,2.2,1.050*
2018-07-19 04:08:00,-2.408E-01,4C000000*,-702.6,968.235,91,27.0,45.0,0.404,731.4,2.2,1.050*
2018-07-19 04:09:00,-3.055E-01,4C000000*,-702.6,966.618,89,27.0,45.1,0.405,731.4,2.2,1.050*
2018-07-19 04:10:00,-2.666E-01,4C000000*,-702.6,968.235,90,26.8,44.8,0.404,731.4,2.2,1.050*
2018-07-19 04:11:00,-2.528E-01,4C000000*,-702.6,967.831,90,26.9,45.1,0.404,731.4,2.2,1.050*
2018-07-19 04:12:00,-2.701E-01,4C000000*,-702.6,967.427,89,26.9,44.9,0.404,731.4,2.2,1.050*
2018-07-19 04:13:00,-2.419E-01,4C000000*,-703.0,967.831,91,26.9,45.0,0.404,731.4,2.2,1.050*
2018-07-19 04:14:00,-3.414E-01,4C000000*,-702.3,968.639,91,26.9,44.9,0.405,731.4,2.2,1.050*